| time (UTC) | temp F | wind direction | speed knots | gust knots | rain 1hr in | rain 24hr in | rain mn in | humidity % | barometer mb |
| 20260502212425 | 65 | 337 | 0.9 | 5.2 | 0.00 | 0.00 | 0.00 | 39 | 1015.2 |
| 20260502211359 | 65 | 338 | 1.7 | 5.2 | 0.00 | 0.00 | 0.00 | 38 | 1015.2 |
| 20260502210349 | 65 | 337 | 0.9 | 6.1 | 0.00 | 0.00 | 0.00 | 38 | 1015.1 |
| 20260502205321 | 65 | 337 | 1.7 | 6.1 | 0.00 | 0.00 | 0.00 | 38 | 1015.2 |
| 20260502203229 | 66 | 3 | 0.9 | 7.8 | 0.00 | 0.00 | 0.00 | 35 | 1015.3 |
| 20260502202210 | 67 | 337 | 0.9 | 5.2 | 0.00 | 0.00 | 0.00 | 34 | 1015.3 |
| 20260502201235 | 67 | 344 | 2.6 | 7.8 | 0.00 | 0.00 | 0.00 | 36 | 1015.4 |
| 20260502200212 | 66 | 337 | 0.0 | 5.2 | 0.00 | 0.00 | 0.00 | 36 | 1015.5 |
| 20260502195145 | 66 | 33 | 1.7 | 5.2 | 0.00 | 0.00 | 0.00 | 36 | 1015.6 |
| 20260502194141 | 65 | 337 | 0.9 | 3.5 | 0.00 | 0.00 | 0.00 | 35 | 1015.7 |
| 20260502193116 | 65 | 337 | 1.7 | 4.3 | 0.00 | 0.00 | 0.00 | 38 | 1015.7 |
| 20260502192042 | 64 | 183 | 0.9 | 4.3 | 0.00 | 0.00 | 0.00 | 36 | 1015.7 |
| 20260502191049 | 63 | 184 | 0.9 | 2.6 | 0.00 | 0.00 | 0.00 | 37 | 1015.9 |
| 20260502190050 | 63 | 184 | 0.9 | 2.6 | 0.00 | 0.00 | 0.00 | 37 | 1016.0 |
| 20260502185019 | 62 | 184 | 0.9 | 2.6 | 0.00 | 0.00 | 0.00 | 40 | 1016.1 |
| 20260502183954 | 62 | 184 | 0.9 | 3.5 | 0.00 | 0.00 | 0.00 | 38 | 1016.2 |
| 20260502182941 | 62 | 184 | 1.7 | 3.5 | 0.00 | 0.00 | 0.00 | 39 | 1016.3 |
| 20260502181948 | 63 | 184 | 0.9 | 3.5 | 0.00 | 0.00 | 0.00 | 38 | 1016.4 |
| 20260502180918 | 63 | 184 | 0.9 | 5.2 | 0.00 | 0.00 | 0.00 | 37 | 1016.5 |
| 20260502163706 | 59 | 16 | 0.0 | 2.6 | 0.00 | 0.00 | 0.00 | 38 | 1016.9 |
| 20260502162653 | 59 | 199 | 0.9 | 5.2 | 0.00 | 0.00 | 0.00 | 39 | 1016.9 |
| 20260502161700 | 58 | 80 | 0.9 | 5.2 | 0.00 | 0.00 | 0.00 | 41 | 1016.9 |
| 20260502160714 | 57 | 30 | 0.0 | 0.9 | 0.00 | 0.00 | 0.00 | 42 | 1017.0 |
| 20260502151706 | 54 | 338 | 0.0 | 2.6 | 0.00 | 0.00 | 0.00 | 44 | 1017.0 |
| 20260502150726 | 54 | 338 | 0.0 | 2.6 | 0.00 | 0.00 | 0.00 | 46 | 1017.0 |
| 20260502130314 | 35 | 201 | 0.0 | 0.0 | 0.00 | 0.00 | 0.00 | 80 | 1016.3 |
| 20260502123158 | 35 | 201 | 0.0 | 0.0 | 0.00 | 0.00 | 0.00 | 81 | 1016.1 |
| 20260502122138 | 35 | 201 | 0.0 | 0.9 | 0.00 | 0.00 | 0.00 | 81 | 1016.0 |
| 20260502121105 | 35 | 201 | 0.0 | 0.0 | 0.00 | 0.00 | 0.00 | 81 | 1016.0 |
| 20260502113802 | 35 | 201 | 0.0 | 0.0 | 0.00 | 0.00 | 0.00 | 80 | 1015.7 |
| 20260502112745 | 35 | 201 | 0.0 | 0.0 | 0.00 | 0.00 | 0.00 | 80 | 1015.6 |
| 20260502110548 | 35 | 201 | 0.0 | 0.0 | 0.00 | 0.00 | 0.00 | 80 | 1015.6 |
| 20260502105537 | 35 | 201 | 0.0 | 0.0 | 0.00 | 0.00 | 0.00 | 80 | 1015.6 |
| 20260502104533 | 35 | 201 | 0.0 | 0.0 | 0.00 | 0.00 | 0.00 | 80 | 1015.6 |
| 20260502103508 | 35 | 201 | 0.0 | 0.0 | 0.00 | 0.00 | 0.00 | 80 | 1015.5 |
| 20260502102440 | 36 | 201 | 0.0 | 0.0 | 0.00 | 0.00 | 0.00 | 80 | 1015.5 |
| 20260502101409 | 36 | 202 | 0.0 | 0.0 | 0.00 | 0.00 | 0.00 | 80 | 1015.5 |
| 20260502100340 | 36 | 202 | 0.0 | 0.0 | 0.00 | 0.00 | 0.00 | 80 | 1015.5 |
| 20260502091239 | 37 | 202 | 0.0 | 0.0 | 0.00 | 0.00 | 0.00 | 78 | 1015.3 |
| 20260502090227 | 37 | 202 | 0.0 | 0.0 | 0.00 | 0.00 | 0.00 | 78 | 1015.2 |
| 20260502065832 | 40 | 202 | 0.0 | 0.0 | 0.00 | 0.00 | 0.00 | 73 | 1014.8 |
| 20260502064850 | 40 | 202 | 0.0 | 0.0 | 0.00 | 0.00 | 0.00 | 72 | 1014.8 |
| 20260502063821 | 40 | 202 | 0.0 | 0.0 | 0.00 | 0.00 | 0.00 | 72 | 1014.8 |
| 20260502062834 | 41 | 202 | 0.0 | 0.0 | 0.00 | 0.00 | 0.00 | 72 | 1014.8 |
| 20260502061845 | 41 | 202 | 0.0 | 0.0 | 0.00 | 0.00 | 0.00 | 71 | 1014.9 |
| 20260502060853 | 42 | 40 | 0.0 | 0.0 | 0.00 | 0.00 | 0.00 | 71 | 1015.0 |
| 20260502055852 | 42 | 39 | 0.0 | 0.0 | 0.00 | 0.00 | 0.00 | 70 | 1015.0 |
| 20260502054818 | 43 | 42 | 0.0 | 1.7 | 0.00 | 0.00 | 0.00 | 69 | 1015.0 |
| 20260502051535 | 44 | 30 | 0.0 | 0.0 | 0.00 | 0.00 | 0.00 | 68 | 1015.4 |
| 20260502044251 | 46 | 22 | 0.0 | 2.6 | 0.00 | 0.00 | 0.00 | 63 | 1015.5 |
| 20260502042137 | 47 | 14 | 0.0 | 0.0 | 0.00 | 0.00 | 0.00 | 63 | 1015.5 |
| 20260502041143 | 48 | 10 | 0.0 | 1.7 | 0.00 | 0.00 | 0.00 | 62 | 1015.6 |
| 20260502040154 | 48 | 9 | 0.0 | 3.5 | 0.00 | 0.00 | 0.00 | 61 | 1015.6 |
| 20260502035148 | 49 | 7 | 0.0 | 0.0 | 0.00 | 0.00 | 0.00 | 60 | 1015.6 |
| 20260502034152 | 50 | 2 | 0.0 | 0.0 | 0.00 | 0.00 | 0.00 | 60 | 1015.5 |
| 20260502033144 | 51 | 354 | 0.0 | 0.0 | 0.00 | 0.00 | 0.00 | 57 | 1015.4 |
| 20260502032206 | 52 | 350 | 0.0 | 0.0 | 0.00 | 0.00 | 0.00 | 53 | 1015.3 |
| 20260502031227 | 54 | 351 | 0.0 | 0.0 | 0.00 | 0.00 | 0.00 | 53 | 1015.1 |
| 20260502030227 | 55 | 347 | 0.0 | 0.0 | 0.00 | 0.00 | 0.00 | 48 | 1014.9 |
| 20260502025208 | 57 | 346 | 0.0 | 0.0 | 0.00 | 0.00 | 0.00 | 46 | 1014.8 |
| 20260502024138 | 59 | 346 | 0.0 | 0.0 | 0.00 | 0.00 | 0.00 | 42 | 1014.6 |
| 20260502023153 | 61 | 343 | 0.0 | 0.0 | 0.00 | 0.00 | 0.00 | 39 | 1014.5 |
| 20260502022218 | 63 | 342 | 0.0 | 0.9 | 0.00 | 0.00 | 0.00 | 36 | 1014.4 |
| 20260502021144 | 65 | 345 | 0.0 | 0.0 | 0.00 | 0.00 | 0.00 | 36 | 1014.4 |
| 20260502020200 | 66 | 200 | 0.0 | 0.0 | 0.00 | 0.00 | 0.00 | 28 | 1014.4 |
| 20260502015152 | 67 | 201 | 0.0 | 0.0 | 0.00 | 0.00 | 0.00 | 27 | 1014.4 |
| 20260502014129 | 68 | 201 | 0.0 | 0.0 | 0.00 | 0.00 | 0.00 | 27 | 1014.5 |
| 20260502011937 | 70 | 202 | 0.0 | 3.5 | 0.00 | 0.00 | 0.00 | 24 | 1014.4 |
| 20260502010912 | 71 | 202 | 0.9 | 4.3 | 0.00 | 0.00 | 0.00 | 23 | 1014.5 |
| 20260502005915 | 72 | 202 | 0.9 | 4.3 | 0.00 | 0.00 | 0.00 | 22 | 1014.6 |
| 20260502004848 | 73 | 202 | 0.9 | 4.3 | 0.00 | 0.00 | 0.00 | 22 | 1014.7 |
| 20260502003909 | 73 | 202 | 0.9 | 4.3 | 0.00 | 0.00 | 0.00 | 21 | 1014.8 |
| 20260502002846 | 73 | 202 | 0.9 | 6.1 | 0.00 | 0.00 | 0.00 | 24 | 1014.9 |
| 20260502001840 | 73 | 202 | 0.9 | 4.3 | 0.00 | 0.00 | 0.00 | 22 | 1014.8 |
| 20260502000901 | 72 | 201 | 0.0 | 1.7 | 0.00 | 0.00 | 0.00 | 21 | 1014.8 |
| 20260501233620 | 72 | 202 | 0.9 | 4.3 | 0.00 | 0.00 | 0.00 | 21 | 1015.2 |
| 20260501232549 | 72 | 201 | 1.7 | 3.5 | 0.00 | 0.00 | 0.00 | 21 | 1015.2 |
| 20260501231611 | 72 | 201 | 0.9 | 4.3 | 0.00 | 0.00 | 0.00 | 22 | 1015.3 |
| 20260501230537 | 71 | 201 | 0.9 | 4.3 | 0.00 | 0.00 | 0.00 | 21 | 1015.4 |
| 20260501225539 | 71 | 201 | 1.7 | 6.1 | 0.00 | 0.00 | 0.00 | 21 | 1015.5 |
| 20260501223318 | 72 | 195 | 0.0 | 3.5 | 0.00 | 0.00 | 0.00 | 20 | 1015.7 |
| 20260501222324 | 72 | 194 | 0.9 | 5.2 | 0.00 | 0.00 | 0.00 | 19 | 1015.8 |
| 20260501221348 | 73 | 194 | 2.6 | 5.2 | 0.00 | 0.00 | 0.00 | 19 | 1015.9 |
| 20260501214127 | 71 | 194 | 0.9 | 7.8 | 0.00 | 0.00 | 0.00 | 22 | 1016.2 |
| 20260501213107 | 70 | 217 | 1.7 | 5.2 | 0.00 | 0.00 | 0.00 | 21 | 1016.5 |